Regional Weather Roundup
Issued by NWS

Home | Current Version | Previous Version | Text Only | Print | Product List | Glossary On
Versions: 1 2 3 4 5 6 7 8 9 10 11 12 13 14 15 16 17 18 19 20 21 22 23 24 25 26 27 28 29 30 31 32 33 34 35 36 37 38 39 40 41 42 43 44 45 46 47 48 49 50
000
ASHW40 PHFO 011043
RWRHI

WEATHER ROUNDUP FOR HAWAII
NATIONAL WEATHER SERVICE HONOLULU HI
1200 AM HST FRI AUG 01 2014

THIS IS AN AUTOMATED REPORT THAT HAS NOT BEEN QUALITY CONTROLLED.

NOTE..."FAIR" INDICATES FEW OR NO CLOUDS BELOW 12,000 FEET WITH NO
SIGNIFICANT WEATHER AND/OR OBSTRUCTIONS TO VISIBILITY.

* - THESE SITES REPORT LIMITED FIELDS

HIZ001>004-011100-
KAUAI-NIIHAU-

CITY           SKY/WX    TMP DP  RH WIND       PRES   REMARKS
LIHUE APT        N/A     78  69  73 NE14      30.04F
PORT ALLEN*      N/A     77 N/A N/A E12G18      N/A
POIPU*           N/A     79 N/A N/A NE8G17      N/A
PRINCEVILLE*   NOT AVBL
KOKOLE POINT*  NOT AVBL
MOLOAA DAIRY*  NOT AVBL
WAIMEA HTS*      N/A    N/A N/A N/A CALM        N/A
PUU OPAE*        N/A     66  57  72 CALM        N/A
PUU LUA*       NOT AVBL
MAKAHA RIDGE*  NOT AVBL
$$

HIZ005>011-011100-
OAHU-

CITY           SKY/WX    TMP DP  RH WIND       PRES   REMARKS
HONOLULU       PTCLDY    79  67  66 VRB6G18   30.00F
KALAELOA       CLEAR     75  66  73 CALM      30.02F
KANEOHE MCB    PTCLDY    79  66  65 E8G17     30.02F
WHEELER FIELD  FAIR      74  67  78 VRB1      30.03F
BELLOWS*         N/A    N/A N/A N/A NE18        N/A
KAHUKU*          N/A    N/A N/A N/A NE9G16      N/A
WHEELER*       NOT AVBL
WAIANAE HARBOR NOT AVBL
DILLINGHAM*      N/A     70  66  88 SE1         N/A
KAHUKU TRN*      N/A     75  70  83 E7G18       N/A
KAWAILOA*      NOT AVBL
KII*             N/A     79  72  78 CALM        N/A
MAKUA RANGE*     N/A     79  66  65 E6G12       N/A
OAHU FOREST NW   N/A     66  66 100 NE14G25     N/A
SCHOFIELD BRK*   N/A     72  66  83 MISG        N/A
SCHOFIELD S*   NOT AVBL
WAIANAE VLY*     N/A     75  66  73 NE12G26     N/A
KUAOKALA*        N/A     73  68  83 CALM        N/A
HONOULIUULI*   NOT AVBL
MOKUOLOE IS*     N/A    N/A N/A N/A MISG        N/A
PALEHUA*         N/A     79  68  69 CALM        N/A
WAIAWA PHB*    NOT AVBL
$$

HIZ012>013-011100-
MOLOKAI-

CITY           SKY/WX    TMP DP  RH WIND       PRES   REMARKS
MOLOKAI AIRPT  CLEAR     76  73  91 NE9G17    30.01F
KALAUPAPA      NOT AVBL
MAKAPULAPAI*     N/A     79  70  73 E16G24      N/A
MOLOKAI 1*       N/A     66  61  82 NW3G14      N/A
PUU ALII*        N/A     61  59  94 E2G12       N/A
$$

HIZ016-011100-
KAHOOLAWE-

CITY           SKY/WX    TMP DP  RH WIND       PRES   REMARKS
KAHOOLAWE*       N/A     72 N/A N/A E16G25      N/A
HAKIOAWA*        N/A     74  68  81 MISG      30.11F
HONOKANAIA*      N/A     78  68  72 NE15G26   30.01S
KANELOA*         N/A     75  70  83 E18G31      N/A
KEALIALALO*      N/A    N/A N/A N/A E15G26      N/A
LUA MAKIKA*    NOT AVBL
$$

HIZ014>015-011100-
LANAI-

CITY           SKY/WX    TMP DP  RH WIND       PRES   REMARKS
LANAI CITY     FAIR      72  69  90 NE7       30.05F
LANAI 1*         N/A     72  72 100 NE16G28     N/A
$$

HIZ017>028-011100-
MAUI-

CITY           SKY/WX    TMP DP  RH WIND       PRES   REMARKS
KAHULUI        CLOUDY    78  68  71 NE18G24   30.00S
KAPALUA-W MAUI NOT AVBL
HANA AIRPORT   CLOUDY    77  70  78 E7        30.04F
HANA*            N/A     77 N/A N/A E7          N/A
HALEAKALA SUMM   N/A     46  37  71 SE17        N/A
MAALAEA BAY*   NOT AVBL
HALEAKALA*     NOT AVBL
KAUPO GAP*       N/A     63  57  82 VRB3G14     N/A
KULA 1*          N/A    N/A N/A N/A E3          N/A
$$

HIZ023>026-011100-
BIG ISLAND OF HAWAII COAST AND LOWER SLOPES-

CITY           SKY/WX    TMP DP  RH WIND       PRES   REMARKS
KAILUA KONA    CLEAR     79  70  74 SE7       29.96F
HILO           CLOUDY    76  72  87 SW5       30.02F
HONOKAA*       NOT AVBL
KAWAIHAE MWT*    N/A     81 N/A N/A W8          N/A
KAWAIHAE*        N/A     81 N/A N/A W6          N/A
SOUTH POINT*     N/A     73 N/A N/A NE22G31     N/A
UPOLU AIRPORT*   N/A    N/A N/A N/A E16G22      N/A
KAMUELA*       MOSUNNY   64  63  94 N18       30.09F
HAKALAU*         N/A     55  55  99 S1          N/A
KALOKO-HONOKO*   N/A     79  70  73 E5        29.95F
PALI 2*          N/A     66  63  88 N17G28      N/A
KEALAKOMO*       N/A     79  72  78 NE14G21     N/A
KAUPULEHU*       N/A     72  64  78 S5          N/A
KAPAPALA*        N/A     66  64  92 W1          N/A
LOWER KAHUKU*  NOT AVBL
PUHE CS*       NOT AVBL
PUHO CS*         N/A     74  66  76 E3          N/A
PTA KEAMUKU*     N/A     61  57  88 S3G9        N/A
WAIKOLOA*        N/A     73  63  68 E10G21      N/A
$$

HIZ027>028-011100-
BIG ISLAND OF HAWAII INTERIOR AND SUMMMITS-

CITY           SKY/WX    TMP DP  RH WIND       PRES   REMARKS
BRADSHAW FIELD PTCLDY    58  49  73 W8        30.33F
MK VISITOR CEN NOT AVBL
MAUNA KEA*       N/A     36  36 100 S15         N/A  WCI  26
MAUNA LOA*       N/A     45  34  65 MISG        N/A
MAUNA LOA 1*     N/A     46  36  66 MISG        N/A
PTA KIPUKA*      N/A     55  54  94 CALM        N/A
PTA RANGE 17*    N/A     61  55  82 SE12G18     N/A
PTA WEST*        N/A     61  57  88 E2          N/A
NENE CABIN*    NOT AVBL
AHUMOA*          N/A     53  45  73 NE3         N/A
PTA PORTABLE*  NOT AVBL
PUU MALI*      NOT AVBL
$$

HIC003-011100-
NORTHWEST ISLANDS-

CITY           SKY/WX    TMP DP  RH WIND       PRES   REMARKS
MIDWAY ISLAND  CLOUDY    81  75  83 E6        30.05S
MIDWAY NOS*    NOT AVBL
FRENCH FRIGATE NOT AVBL
$$

PHZ110>124-180-011100-
BUOY REPORTS

STATION/POSITION TIME  TEMP    WIND        PRES    WAVE   SWELL
                       AIR SEA DIR/SP/G            HT/PER HT/DIR
                 (UTC) (F)     (DEG/KT/KT) (MB)    (FT/S) (FT/D)
BUOY 51001       NOT AVBL
BUOY 51101       NOT AVBL
BUOY 51100       1000   78      90/ 14     1017.4F
BUOY 51003       1000   81 82   80/ 14/ 17 1015.4F   6/ 8   5
BUOY 51004       0943   79 80   60/ 19/ 25 1012.9F   8/ 8   3/160
BARBERS PT BUOY  NOT AVBL
WAIMEA BAY BUOY  1000      80                N/A     3/ 5
KAILUA BAY BUOY  1000      80                N/A     5/ 5   2/100
LANAI BUOY       1000      81                N/A     3/15   2/210
BARBERS PT 2     1000      80                N/A     4/15   2/200
PAUWELA MAUI     1000      79                N/A     6/ 8   2/ 80
HILO             NOT AVBL
KANEOHE BAY BUOY 1000      79                N/A     4/ 5
HANALEI KAUAI    NOT AVBL
KAHULUI HARBOR   1000   78 81   50/ 13/ 16 1015.6F
HONOLULU HARBOR  1000   80      40/  4/ 10 1016.1F
KILO NALU        NOT AVBL
HILO HARBOR      1000   76     240/  4/  5 1015.8F
MOKUOLOE         1000      82              1016.5F
NAWILIWILI       1000      84                N/A
WHOTS BUOY       NOT AVBL
BUOY 51028       NOT AVBL
$$

......................KEY........................................
  SKY/WX - SKY CONDITIONS/PRESENT WEATHER
  TMP    - TEMPERATURE IN FAHRENHEIT
  DWPT   - DEWPOINT IN FAHRENHEIT
  RH     - RELATIVE HUMIDITY IN PERCENT
  WIND   - DIRECTION AND SPEED /MPH FOR ISLANDS...KTS FOR BUOYS/
  PRES   - MEAN SEA LEVEL PRESSURE IN INCHES OF HG
  VSB    - VISIBILITY IN MILES
  HX     - HEAT INDEX
  WCI    - WIND CHILL INDEX
  VRB    - VARIABLE WIND DIRECTION
  N/A    - NOT AVAILABLE


USA.gov is the U.S. government's official web portal to all federal, state and local government web resources and services.